Location: Bishopstone
(51.0167°N, 1.9000°W)
Time: 22:54:12
(UTC+00:00)

Cosmos 1707 - Pass Details

Date: 16 September 2019
Orbit: 517 x 530 km, 82.5° (Epoch: 16 October)

Event Time Altitude Azimuth Distance (km) Brightness Sun altitude
Rises 20:26:13 0° 342° (NNW) 2,681 7.1 -19.6°
Reaches altitude 10° 20:28:30 10° 332° (NNW) 1,787 6.3 -19.9°
Maximum altitude 20:32:02 33° 269° (W) 917 4.4 -20.4°
Drops below altitude 10° 20:35:32 10° 205° (SSW) 1,776 5.3 -20.8°
Enters shadow 20:35:39 - 204° (SSW) 1,818 5.4 -20.8°
